Weather History for Rutland, VT

Change the Weather History Date:

Wednesday, May 15, 2013

  Actual Average Record
Temperature  
Mean Temperature 46 °F -  
Max Temperature 61 °F - 88 °F (1961)
Min Temperature 30 °F - 30 °F (1977)
Degree Days  
Heating Degree Days 19    
Month to date heating degree days 139  
Since 1 July heating degree days 6699  
Cooling Degree Days 0    
Month to date cooling degree days 0  
Year to date cooling degree days 0  
Moisture  
Dew Point 35 °F    
Average Humidity 56    
Maximum Humidity 86    
Minimum Humidity 26    
Precipitation  
Precipitation 0.07 in - 0.90 in (1976)
Month to date precipitation 0.33  
Year to date precipitation 4.84  
Sea Level Pressure  
Sea Level Pressure 29.85 in    
Wind  
Wind Speed 10 mph (SE)    
Max Wind Speed 20 mph    
Max Gust Speed 22 mph    
Visibility 10 miles    
Events Thunderstorm    
T = Trace of Precipitation, MM = Missing Value Source: NWS Daily Summary

Daily Weather History Graph

Daily Weather History Graph

Search for Another Location

Airport:

Trip Planner

Search our weather history database for the weather conditions in past years. The results will help you decide how hot, cold, wet, or windy it might be!

Date:

Astronomy

May. 15, 2013 Rise Set
Actual Time 5:26 AM EDT 8:10 PM EDT
Civil Twilight 4:53 AM EDT 8:43 PM EDT
Nautical Twilight 4:12 AM EDT 9:25 PM EDT
Astronomical Twilight 3:24 AM EDT 10:13 PM EDT
Moon 10:01 AM EDT (5/15) No Moon Set
Length of Visible Light 15h 49m
Length of Day
14h 43m
Waxing Crescent, 26% of the Moon is Illuminated
May 15
Waxing Crescent
May 18
First Quarter
May 25
Full
May 31
Last Quarter
Jun 8
New

Hourly Weather History & Observations

Time (EDT) Temp. Windchill Dew Point Humidity Pressure Visibility Wind Dir Wind Speed Gust Speed Precip Events Conditions
12:15 AM 35.6 °F 28.0 °F 28.4 °F 75% 30.05 in 10.0 mi SE 10.4 mph - N/A   Clear
12:35 AM 35.6 °F 28.0 °F 28.4 °F 75% 30.05 in 10.0 mi ESE 10.4 mph - N/A   Clear
12:55 AM 35.6 °F 27.5 °F 28.4 °F 75% 30.04 in 10.0 mi SE 11.5 mph - N/A   Clear
1:15 AM 35.6 °F 29.9 °F 28.4 °F 75% 30.04 in 10.0 mi SSE 6.9 mph - N/A   Clear
1:35 AM 33.8 °F 26.4 °F 26.6 °F 75% 30.04 in 10.0 mi SE 9.2 mph - N/A   Clear
1:55 AM 33.8 °F 26.4 °F 28.4 °F 81% 30.04 in 10.0 mi SSE 9.2 mph - N/A   Clear
2:15 AM 33.8 °F 28.6 °F 28.4 °F 81% 30.04 in 10.0 mi SSE 5.8 mph - N/A   Clear
2:35 AM 33.8 °F 25.8 °F 28.4 °F 81% 30.03 in 10.0 mi SE 10.4 mph - N/A   Clear
2:55 AM 33.8 °F 24.8 °F 26.6 °F 75% 30.03 in 10.0 mi ESE 12.7 mph - N/A   Clear
3:15 AM 33.8 °F 27.7 °F 26.6 °F 75% 30.03 in 10.0 mi SSE 6.9 mph - N/A   Clear
3:35 AM 32.0 °F 23.6 °F 26.6 °F 80% 30.02 in 10.0 mi SSE 10.4 mph - N/A   Clear
3:55 AM 32.0 °F 27.5 °F 26.6 °F 80% 30.03 in 10.0 mi SE 4.6 mph - N/A   Clear
4:15 AM 32.0 °F 23.6 °F 26.6 °F 80% 30.03 in 10.0 mi ESE 10.4 mph - N/A   Clear
4:35 AM 32.0 °F 25.6 °F 26.6 °F 80% 30.03 in 10.0 mi SE 6.9 mph - N/A   Clear
4:55 AM 32.0 °F 23.6 °F 26.6 °F 80% 30.02 in 10.0 mi ESE 10.4 mph - N/A   Clear
5:15 AM 30.2 °F 24.3 °F 26.6 °F 86% 30.03 in 10.0 mi SSE 5.8 mph - N/A   Clear
5:35 AM 30.2 °F 23.4 °F 26.6 °F 86% 30.03 in 10.0 mi SE 6.9 mph - N/A   Clear
5:55 AM 30.2 °F 24.3 °F 26.6 °F 86% 30.02 in 10.0 mi SE 5.8 mph - N/A   Clear
6:15 AM 30.2 °F 24.3 °F 26.6 °F 86% 30.01 in 10.0 mi SE 5.8 mph - N/A   Clear
6:35 AM 32.0 °F 26.4 °F 26.6 °F 80% 30.01 in 10.0 mi SE 5.8 mph - N/A   Clear
6:55 AM 33.8 °F - 28.4 °F 81% 30.02 in 10.0 mi Calm Calm - N/A   Clear
7:15 AM 35.6 °F 32.8 °F 28.4 °F 75% 30.01 in 10.0 mi SE 3.5 mph - N/A   Clear
7:35 AM 37.4 °F 34.9 °F 28.4 °F 70% 30.00 in 10.0 mi South 3.5 mph - N/A   Clear
7:55 AM 39.2 °F - 30.2 °F 70% 29.99 in 10.0 mi Calm Calm - N/A   Clear
8:15 AM 42.8 °F - 30.2 °F 61% 29.98 in 10.0 mi Calm Calm - N/A   Clear
8:35 AM 46.4 °F - 30.2 °F 53% 29.97 in 10.0 mi Calm Calm - N/A   Clear
8:55 AM 48.2 °F - 30.2 °F 50% 29.96 in 10.0 mi SSW 3.5 mph - N/A   Clear
9:15 AM 51.8 °F - 28.4 °F 41% 29.94 in 10.0 mi South 3.5 mph - N/A   Clear
9:35 AM 53.6 °F - 26.6 °F 35% 29.93 in 10.0 mi South 5.8 mph - N/A   Clear
9:55 AM 55.4 °F - 26.6 °F 33% 29.92 in 10.0 mi South 9.2 mph - N/A   Clear
10:15 AM 57.2 °F - 26.6 °F 31% 29.91 in 10.0 mi SSE 8.1 mph - N/A   Clear
10:35 AM 59.0 °F - 24.8 °F 27% 29.90 in 10.0 mi SW 10.4 mph 16.1 mph N/A   Clear
10:55 AM 59.0 °F - 24.8 °F 27% 29.89 in 10.0 mi South 16.1 mph 21.9 mph N/A   Clear
11:15 AM 60.8 °F - 26.6 °F 27% 29.88 in 10.0 mi South 15.0 mph 19.6 mph N/A   Partly Cloudy
11:36 AM 60.8 °F - 26.6 °F 27% 29.87 in 10.0 mi South 18.4 mph 23.0 mph N/A   Partly Cloudy
11:55 AM 60.8 °F - 30.2 °F 31% 29.86 in 10.0 mi South 11.5 mph 21.9 mph N/A   Mostly Cloudy
12:15 PM 60.8 °F - 32.0 °F 34% 29.86 in 10.0 mi South 11.5 mph 21.9 mph N/A   Overcast
12:35 PM 60.8 °F - 32.0 °F 34% 29.85 in 10.0 mi South 12.7 mph - N/A   Overcast
12:55 PM 59.0 °F - 33.8 °F 39% 29.83 in 10.0 mi South 19.6 mph - N/A   Overcast
1:15 PM 57.2 °F - 37.4 °F 48% 29.80 in 10.0 mi South 13.8 mph 18.4 mph N/A   Overcast
1:35 PM 57.2 °F - 35.6 °F 44% 29.78 in 10.0 mi South 12.7 mph - N/A   Overcast
1:55 PM 57.2 °F - 37.4 °F 48% 29.77 in 10.0 mi SSW 8.1 mph - N/A   Overcast
2:15 PM 57.2 °F - 37.4 °F 48% 29.73 in 10.0 mi SE 17.3 mph 21.9 mph N/A   Overcast
2:35 PM 57.2 °F - 37.4 °F 48% 29.79 in 10.0 mi SW 10.4 mph - N/A   Overcast
2:55 PM 51.8 °F - 44.6 °F 76% 29.79 in 10.0 mi South 8.1 mph - 0.03 in   Overcast
3:15 PM 51.8 °F - 44.6 °F 76% 29.74 in 10.0 mi SE 16.1 mph 20.7 mph 0.02 in Thunderstorm Overcast
3:35 PM 50.0 °F - 44.6 °F 82% 29.75 in 10.0 mi East 11.5 mph 18.4 mph 0.04 in   Overcast
3:55 PM 50.0 °F - 46.4 °F 87% 29.71 in 10.0 mi SE 16.1 mph - 0.04 in   Overcast
4:15 PM 51.8 °F - 44.6 °F 76% 29.68 in 10.0 mi SE 16.1 mph 21.9 mph N/A   Overcast
4:35 PM 53.6 °F - 46.4 °F 77% 29.66 in 10.0 mi SE 19.6 mph 26.5 mph N/A   Mostly Cloudy
4:55 PM 53.6 °F - 44.6 °F 72% 29.68 in 10.0 mi SE 9.2 mph - N/A   Mostly Cloudy
5:15 PM 53.6 °F - 46.4 °F 77% 29.69 in 10.0 mi SE 6.9 mph - N/A   Overcast
5:35 PM 53.6 °F - 46.4 °F 77% 29.67 in 10.0 mi SE 12.7 mph - N/A   Overcast
5:55 PM 55.4 °F - 46.4 °F 72% 29.65 in 10.0 mi ESE 15.0 mph 18.4 mph N/A   Overcast
6:35 PM 55.4 °F - 46.4 °F 72% 29.64 in 10.0 mi ESE 16.1 mph 20.7 mph N/A   Mostly Cloudy
6:55 PM 55.4 °F - 46.4 °F 72% 29.64 in 7.0 mi ESE 16.1 mph - N/A   Mostly Cloudy
7:15 PM 55.4 °F - 46.4 °F 72% 29.63 in 10.0 mi ESE 12.7 mph - N/A   Scattered Clouds
7:35 PM 53.6 °F - 46.4 °F 77% 29.63 in 10.0 mi SE 10.4 mph - N/A   Scattered Clouds
7:55 PM 53.6 °F - 46.4 °F 77% 29.63 in 10.0 mi ESE 9.2 mph - N/A   Mostly Cloudy
8:15 PM 53.6 °F - 46.4 °F 77% 29.63 in 10.0 mi ESE 8.1 mph - N/A   Mostly Cloudy
8:35 PM 53.6 °F - 46.4 °F 77% 29.64 in 10.0 mi ESE 10.4 mph - N/A   Overcast
8:55 PM 51.8 °F - 46.4 °F 82% 29.65 in 10.0 mi ESE 11.5 mph - N/A   Mostly Cloudy
9:15 PM 51.8 °F - 46.4 °F 82% 29.65 in 10.0 mi ESE 13.8 mph - N/A   Mostly Cloudy
9:35 PM 51.8 °F - 46.4 °F 82% 29.66 in 10.0 mi ESE 13.8 mph - N/A   Scattered Clouds
9:55 PM 51.8 °F - 46.4 °F 82% 29.66 in 10.0 mi ESE 11.5 mph - N/A   Clear
10:15 PM 51.8 °F - 46.4 °F 82% 29.65 in 10.0 mi ESE 12.7 mph - N/A   Clear
10:55 PM 50.0 °F - 46.4 °F 87% 29.65 in 10.0 mi ESE 10.4 mph - N/A   Clear
11:15 PM 51.8 °F - 46.4 °F 82% 29.65 in 10.0 mi SSE 6.9 mph - N/A   Clear
11:35 PM 51.8 °F - 46.4 °F 82% 29.65 in 10.0 mi SE 6.9 mph - N/A   Clear
11:55 PM 51.8 °F - 46.4 °F 82% 29.65 in 10.0 mi South 4.6 mph - N/A   Clear